Regional Weather Roundup
Issued by NWS

Home | Current Version | Previous Version | Text Only | Print | Product List | Glossary Off
Versions: 1 2 3 4 5 6 7 8 9 10 11 12 13 14 15 16 17 18 19 20 21 22 23 24 25 26 27 28

000
ASUS45 KCYS 311210
RWRWY

WYOMING REGIONAL WEATHER ROUNDUP
NATIONAL WEATHER SERVICE CHEYENNE WY
600 AM MDT WED AUG 31 2016

NOTE:  "FAIR" INDICATES FEW OR NO CLOUDS BELOW 12,000 FEET
WITH NO SIGNIFICANT WEATHER AND/OR OBSTRUCTIONS TO VISIBILITY.

WYZ001-311300-
YELLOWSTONE NATIONAL PARK

CITY           SKY/WX    TMP DP  RH WIND       PRES   REMARKS
LK YELLOWSTONE   N/A     41  33  73 CALM      30.38S
6HR MIN TEMP:  41; 6HR MAX TEMP:  50;

W YELLOWSTONE  NOT AVBL

$$
WYZ002>013-054>058-071-098>099-311300-
NORTHERN WYOMING

CITY           SKY/WX    TMP DP  RH WIND       PRES   REMARKS
JACKSON        FAIR      45  34  65 N5        30.29R
CODY           FAIR      57  36  44 CALM      30.16R
GREYBULL       FAIR      66  36  32 E5        30.11S
6HR MIN TEMP:  65; 6HR MAX TEMP:  77;

WORLAND        FAIR      65  43  44 SE8       30.13S
6HR MIN TEMP:  62; 6HR MAX TEMP:  72;

SHERIDAN       FAIR      57  39  51 SW5       30.08S
6HR MIN TEMP:  55; 6HR MAX TEMP:  79;

BUFFALO        FAIR      67  43  41 S14       30.18S
6HR MIN TEMP:  65; 6HR MAX TEMP:  73;

GILLETTE       FAIR      62  52  69 S14       30.18R
6HR MIN TEMP:  61; 6HR MAX TEMP:  67;

HULETT         FAIR      70  52  52 S9G17     30.20R
NEWCASTLE      FAIR      63  52  67 SE10      30.23F

$$
WYZ014>020-022>026-101>103-311300-
CENTRAL WYOMING

CITY           SKY/WX    TMP DP  RH WIND       PRES   REMARKS
BIG PINEY      FAIR      40  29  64 N7        30.34S
6HR MIN TEMP:  40; 6HR MAX TEMP:  59;

PINEDALE       FAIR      37  32  81 CALM      30.36R
DUBOIS         FAIR      48  27  43 W12       30.35S
LANDER         FAIR      62  32  32 CALM      30.25R
6HR MIN TEMP:  59; 6HR MAX TEMP:  73;

RIVERTON       FAIR      55  41  59 W6        30.24R
6HR MIN TEMP:  55; 6HR MAX TEMP:  70;

CASPER         FAIR      47  44  90 N6        30.24S
6HR MIN TEMP:  46; 6HR MAX TEMP:  57;

DOUGLAS        FAIR      53  50  89 SE7       30.25S
6HR MIN TEMP:  53; 6HR MAX TEMP:  63;


$$
WYZ021-027>030-104>119-311300-
SOUTHERN WYOMING

CITY           SKY/WX    TMP DP  RH WIND       PRES   REMARKS
EVANSTON       FAIR      59  25  27 E7        30.29S
6HR MIN TEMP:  56; 6HR MAX TEMP:  65;

FORT BRIDGER   FAIR      51  19  28 W5        30.32S
ROCK SPRINGS   FAIR      55  36  48 E7        30.29S
6HR MIN TEMP:  53; 6HR MAX TEMP:  65;

DIXON          FAIR      50  37  60 SE5       30.32R
RAWLINS        FAIR      46  39  76 NE7       30.33S
6HR MIN TEMP:  45; 6HR MAX TEMP:  58;

SARATOGA       FAIR      43  37  81 CALM      30.35R
LARAMIE        FOG       41  40  96 S10       30.36F VSB 3/4
6HR MIN TEMP:  40; 6HR MAX TEMP:  54;

CHEYENNE       FAIR      49  46  90 W8        30.33S
6HR MIN TEMP:  48; 6HR MAX TEMP:  56;

TORRINGTON     FOG       56  56 100 E9        30.24S VSB 1/2
6HR MIN TEMP:  53; 6HR MAX TEMP:  59;

PINE BLUFFS    CLOUDY    52  52 100 CALM      30.30S FOG

$$




USA.gov is the U.S. government's official web portal to all federal, state and local government web resources and services.